Location: G�kdere
(37.0328°N, 30.9000°E)
Time: 01:44:40
(UTC+00:00)

Cosmos 2084 Rocket - Pass Details

Date: 03 March 2021
Orbit: 527 x 653 km, 62.8° (Epoch: 22 April)

Event Time Altitude Azimuth Distance (km) Brightness Sun altitude
Rises 16:49:05 0° 334° (NNW) 2,822 7.3 -12.1°
Reaches altitude 10° 16:51:25 10° 342° (NNW) 1,940 6.4 -12.5°
Maximum altitude 16:55:34 40° 52° (NE) 912 4.0 -13.4°
Enters shadow 16:58:12 20° 111° (ESE) 1,432 4.8 -13.9°
